Lexington Weather

Lexington, Massachusetts, USA

33°F
12/8/2019 3:57pm 
  • Lexington Conditions: Mostly cloudy
  • Temperature: 32.7°F / 0.4°CColder 1.1°F than last hour.
  • Dew Point: 17.1°FIncreased 1.8°Fsince last hour.
  • Relative Humidity: 52%Increased 6.0% since last hour.
  • Wind: Wind from SSW SSW 5 mph, 10-min avg: 2 mph, gust: 6 mph
  • Barometer: 30.40 in Steady
  • Visibility: 10 miles
  • Snow Today: 0.0 in
  •   

Regional Weather Roundup
for Boston / Norton, MA

        
000
ASUS41 KBOX 070400
RWRBOX

REGIONAL WEATHER ROUNDUP
NATIONAL WEATHER SERVICE BOSTON/NORTON MA
1100 PM EST FRI DEC 06 2019

NOTE:  "FAIR" INDICATES FEW OR NO CLOUDS BELOW 12,000 FEET WITH NO 
SIGNIFICANT WEATHER AND/OR OBSTRUCTIONS TO VISIBILITY.

MAZALL-070500-
EASTERN MASSACHUSETTS
  
CITY           SKY/WX    TMP DP  RH WIND       PRES   REMARKS
BOSTON         FAIR      33  26  75 NW13G20   30.03R WCI  24          
BEVERLY        FAIR      30  26  85 NW7       30.02R WCI  23          
LAWRENCE       FAIR      28  24  85 W5        30.06R WCI  23          
BEDFORD        CLOUDY    27  23  85 NW7       30.04R WCI  19          
BLUE HILL        N/A     28  27  96 NW10G17   29.99R WCI  19          
NORWOOD        FAIR      33  27  78 NW5       30.04R WCI  29          
MARSHFIELD     NOT AVBL                                               
PLYMOUTH       FAIR      35  30  82 NW16G23   30.01R WCI  25          
TAUNTON        MOCLDY    38  28  67 NW10G18   30.02R WCI  31          
NEW BEDFORD    MOCLDY    40  28  62 NW8G21    30.00R                  
$$

MAZALL-070500-
CAPE COD AND THE ISLANDS
  
CITY           SKY/WX    TMP DP  RH WIND       PRES   REMARKS
FALMOUTH       PTCLDY    41  28  60 SW20G26   29.98R WCI  32          
HYANNIS        NOT AVBL                                               
CHATHAM        CLOUDY    43  32  65 NW14G25   29.98R                  
PROVINCETOWN   MOCLDY    38  34  85 NW22G29   29.99R WCI  27          
NANTUCKET      CLOUDY    46  36  68 NW14      29.98R                  
MARTHAS VNYRD  CLOUDY    44  29  55 NW14G26   29.99R                  
$$
 
MAZALL-070500-
CENTRAL AND WESTERN MASSACHUSETTS
  
CITY           SKY/WX    TMP DP  RH WIND       PRES   REMARKS
WORCESTER      FAIR      28  23  81 W14       30.02R WCI  17          
FITCHBURG      NOT AVBL                                               
ORANGE         FAIR      27  23  85 W6        30.07R WCI  20          
SPRINGFIELD    PTCLDY    26  22  85 NW5       30.08R WCI  21          
WESTFIELD      CLOUDY    32  23  69 NW10      30.09R WCI  24          
NORTH ADAMS    MOCLDY    29  21  72 W18G28    30.08R WCI  16          
PITTSFIELD     CLOUDY    28  19  69 NW12      30.06R WCI  18          
$$
 
RIZALL-070500-
RHODE ISLAND
  
CITY           SKY/WX    TMP DP  RH WIND       PRES   REMARKS
PROVIDENCE     FAIR      38  28  67 NW18G30   30.04R WCI  28          
NEWPORT        FAIR      41  26  55 NW20G35   30.01R WCI  32          
BLOCK ISLAND   FAIR      40  26  57 NW13G22   30.04R                  
SMITHFIELD     FAIR      34  26  72 NW15G22   30.03R WCI  24          
WESTERLY       FAIR      41  22  46 NW13G28   30.06R                  
$$
 
CTZALL-070500-
CONNECTICUT
  
CITY           SKY/WX    TMP DP  RH WIND       PRES   REMARKS
BRADLEY INTL   FAIR      36  23  59 NW10G22   30.10R WCI  28          
HARTFORD       FAIR      36  22  56 N13       30.11R WCI  27          
BRIDGEPORT     FAIR      40  27  59 N12       30.10R                  
DANBURY        FAIR      36  21  54 NW7       30.10R WCI  30          
GROTON         NOT AVBL                                               
NEW HAVEN      FAIR      41  26  55 NW13      30.09R                  
CHESTER        FAIR      36  23  60 NW14G24   30.06R WCI  27          
MERIDEN        FAIR      35  23  61 NW10      30.10R WCI  27          
WILLIMANTIC    FAIR      34  24  67 NW13G20   30.09R WCI  25          
OXFORD         FAIR      33  25  72 NW7       30.08R WCI  27          
$$

MEZ002-015-021-024-NHZ003-005-008-011-012-014-VTZ005-008-070500-
NORTHERN NEW ENGLAND
  
CITY           SKY/WX    TMP DP  RH WIND       PRES   REMARKS
PORTLAND ME    FAIR      26  22  84 CALM      30.02R                  
BANGOR ME      LGT SNOW  24  21  88 NW6       30.00R FOG     WCI  17  
CONCORD NH     FOG       19  17  92 CALM      30.04R VSB 1            
MANCHESTER NH  FAIR      28  24  85 W6        30.03R WCI  22          
NASHUA NH      FAIR      21  21 100 CALM      30.06R                  
PORTSMOUTH NH  NOT AVBL                                               
JAFFREY NH     MOCLDY    28  20  71 CALM      30.02R                  
KEENE NH       CLOUDY    25  24  96 CALM      30.07R                  
BURLINGTON VT  FLURRIES  24  14  65 NW7       30.13R WCI  16          
MT. WASHINGTON SNOW       3   3 100 W48         N/A  VSB 1/16WCI -26  
$$

NYZ052-076-070500-
EASTERN NEW YORK
  
CITY           SKY/WX    TMP DP  RH WIND       PRES   REMARKS
ALBANY         FAIR      28  17  63 NW17G23   30.16R WCI  16          
NEW YORK CITY  FAIR      41  24  51 NW17      30.12R                  
$$
 
ANZALL-070500-
MARINE OBSERVATIONS
  
STATION/POSITION TIME  TEMP    WIND        PRES    VSBY  WAVE
                       AIR SEA DIR/SP/G                  HT/PER
                 (UTC) (F)     (DEG/KT/KT) (MB)    (MI)  (FT/S)
BOSTON BUOY      0250   38 48  310/ 19/ 23 1013.8          1/ 2
BUZZARDS BAY     0300   45     300/ 29/ 32 1015.3R
NANTUCKET SOUND  0340   44 43                N/A
MASS BAY-STELLWA 0304   35 46  350/ 19/ 23 1013.2R  1 7/8  1/ 3
ISLE OF SHOALS   0300   31     340/ 15/ 17 1015.2R
S OF BLOCK IS    0330      52                N/A          10/ 8
$$

......................KEY.........................
  SKY/WX - SKY CONDITION/PRESENT WEATHER
  TMP    - TEMPERATURE IN FAHRENHEIT
  DWPT   - DEWPOINT IN FAHRENHEIT
  RH     - RELATIVE HUMIDITY IN PERCENT
  WIND   - DIRECTION AND SPEED IN MPH
  PRES   - MEAN SEA LEVEL PRESSURE IN INCHES OF HG
  WCI    - WIND CHILL INDEX
  VSB    - VISIBILITY IN MILES
  HX     - HEAT INDEX
  TC     - TEMPERATURE IN CELSIUS
  VRB    - VARIABLE WIND DIRECTION
  N/A    - NOT AVAILABLE
  
      

Other recent Regional Weather Roundups

Sun Dec 8, 3:10pm

Sun Dec 8, 3:01pm

Sun Dec 8, 2:10pm

Sun Dec 8, 2:01pm

Sun Dec 8, 1:10pm

Sun Dec 8, 1:00pm

Sun Dec 8, 12:10pm

Sun Dec 8, 12:01pm

Sun Dec 8, 11:10am

Sun Dec 8, 11:00am

Sun Dec 8, 10:10am

Sun Dec 8, 10:01am

Sun Dec 8, 9:10am

Sun Dec 8, 9:00am

Sun Dec 8, 8:10am

Sun Dec 8, 8:00am

Sun Dec 8, 7:10am

Sun Dec 8, 7:00am

Sun Dec 8, 6:10am

Sun Dec 8, 6:00am

Sun Dec 8, 5:10am

Sun Dec 8, 5:00am

Sun Dec 8, 4:10am

Sun Dec 8, 4:00am

Sun Dec 8, 3:10am

Sun Dec 8, 3:00am

Sun Dec 8, 2:10am

Sun Dec 8, 2:00am

Sun Dec 8, 1:10am

Sun Dec 8, 1:00am

Sun Dec 8, 12:10am

Sun Dec 8, 12:01am

Sat Dec 7, 11:10pm

Sat Dec 7, 11:00pm

Sat Dec 7, 10:10pm

Sat Dec 7, 10:00pm

Sat Dec 7, 9:10pm

Sat Dec 7, 9:00pm

Sat Dec 7, 8:10pm

Sat Dec 7, 8:00pm

Sat Dec 7, 7:10pm

Sat Dec 7, 7:00pm

Sat Dec 7, 6:10pm

Sat Dec 7, 6:00pm

Sat Dec 7, 5:10pm

Sat Dec 7, 5:00pm

Sat Dec 7, 4:10pm

Sat Dec 7, 4:00pm

Sat Dec 7, 3:10pm

Sat Dec 7, 3:00pm

Sat Dec 7, 2:10pm

Sat Dec 7, 2:01pm

Sat Dec 7, 1:10pm

Sat Dec 7, 1:00pm

Sat Dec 7, 12:10pm

Sat Dec 7, 12:01pm

Sat Dec 7, 11:10am

Sat Dec 7, 11:00am

Sat Dec 7, 10:10am

Sat Dec 7, 10:01am

Sat Dec 7, 9:10am

Sat Dec 7, 9:00am

Sat Dec 7, 8:10am

Sat Dec 7, 8:00am

Sat Dec 7, 7:10am

Sat Dec 7, 7:00am

Sat Dec 7, 6:10am

Sat Dec 7, 6:00am

Sat Dec 7, 5:10am

Sat Dec 7, 5:00am

Sat Dec 7, 4:10am

Sat Dec 7, 4:00am

Sat Dec 7, 3:10am

Sat Dec 7, 3:00am

Sat Dec 7, 2:10am

Sat Dec 7, 2:01am

Sat Dec 7, 1:10am

Sat Dec 7, 1:00am

Sat Dec 7, 12:10am

Sat Dec 7, 12:01am

Fri Dec 6, 11:10pm

Fri Dec 6, 10:10pm

Fri Dec 6, 10:00pm

Fri Dec 6, 9:10pm

Fri Dec 6, 9:00pm

Fri Dec 6, 8:10pm

Fri Dec 6, 8:00pm

Fri Dec 6, 7:10pm

Fri Dec 6, 7:01pm

Fri Dec 6, 6:10pm

Fri Dec 6, 6:00pm

Fri Dec 6, 5:10pm

Fri Dec 6, 5:00pm

Fri Dec 6, 4:10pm

Fri Dec 6, 4:00pm

Fri Dec 6, 3:10pm

Fri Dec 6, 3:00pm

Fri Dec 6, 2:10pm

Fri Dec 6, 2:00pm

Fri Dec 6, 1:10pm

Fri Dec 6, 1:00pm

Fri Dec 6, 12:10pm

Fri Dec 6, 12:00pm

Fri Dec 6, 11:10am

Fri Dec 6, 11:00am

Fri Dec 6, 10:10am

Fri Dec 6, 10:00am

Fri Dec 6, 9:10am

Fri Dec 6, 9:00am

Fri Dec 6, 8:10am

Fri Dec 6, 8:00am

Fri Dec 6, 7:10am

Fri Dec 6, 7:00am

Fri Dec 6, 6:10am

Fri Dec 6, 6:01am

Fri Dec 6, 5:10am

Fri Dec 6, 5:00am

Fri Dec 6, 4:10am

Fri Dec 6, 4:00am

Fri Dec 6, 3:10am

Fri Dec 6, 3:00am

Fri Dec 6, 2:10am

Fri Dec 6, 2:00am

Fri Dec 6, 1:10am

Fri Dec 6, 1:00am

Fri Dec 6, 12:10am

Fri Dec 6, 12:00am

Thu Dec 5, 11:10pm

Thu Dec 5, 11:00pm

Thu Dec 5, 10:10pm

Thu Dec 5, 10:01pm

Thu Dec 5, 9:10pm

Thu Dec 5, 9:01pm

Thu Dec 5, 8:10pm

Thu Dec 5, 8:00pm

Thu Dec 5, 7:10pm

Thu Dec 5, 7:00pm

Thu Dec 5, 6:10pm

Thu Dec 5, 6:00pm

Thu Dec 5, 5:10pm

Thu Dec 5, 5:00pm

Thu Dec 5, 4:10pm

Thu Dec 5, 4:00pm

Meta data:

ID: d0930d2f-2d5c-4b68-ad82-a803b2478a3b
Link: https://api.weather.gov/products/d0930d2f-2d5c-4b68-ad82-a803b2478a3b